Flag for Germany Weather past 2 weeks in Neumarkt in der Oberpfalz, Bavaria, Germany

Now
59 °F

Overcast.


Feels Like: 57 °F
Forecast: 46 / 58 °F
Wind: 9 mph from West

Location: Hohenfels

Current Time: Sep 5, 2015 at 6:44:35 PM

Latest Report: Sep 5, 2015 at 5:58 PM


Visibility: N/A

Pressure: 30.01 "Hg

Humidity: 59%

Dew point: 45 °F

Location of Neumarkt in der OberpfalzLocation

Historic Weather in Neumarkt in der Oberpfalz — Graph

°F

Neumarkt in der Oberpfalz temperature yesterday

Maximum temperature yesterday: 66 °F (at 2:58 PM)
Minimum temperature yesterday: 50 °F (at 6:58 AM)
Average temperature yesterday: 58 °F

Past Weeks' High & Low Weather Summary

 TemperatureHumidityPressure
High91 °F (Aug 30, 3:58 PM)100% (Aug 22, 4:58 AM)30.24 "Hg (Aug 22, 4:58 AM)
Low45 °F (Aug 22, 5:58 AM)28% (Aug 31, 4:58 PM)29.69 "Hg (Aug 24, 6:58 PM)
Average65 °F70%29.99 "Hg
* Reported Aug 21 4:58 PM — Sep 5 4:58 PM, Neumarkt in der Oberpfalz, Weather by CustomWeather, © 2015

Note: Actual official high and low records may vary slightly from our data, if they occured in-between our weather recording intervals... More about our weather records

Advertising

Neumarkt in der Oberpfalz weather history for previous 24 hours

 ConditionsComfort  
Time TempWeatherWind HumidityBarometerVisibility
4:58 PM
Sat, Sep 5
61 °FOvercast.9 mph55%30.01 "HgN/A
3:58 PM61 °FOvercast.10 mph52%30.01 "HgN/A
2:58 PM63 °FOvercast.9 mph45%29.99 "HgN/A
1:58 PM63 °FPassing clouds.10 mph45%29.98 "HgN/A
12:58 PM59 °FPassing clouds.9 mph51%30.00 "HgN/A
11:58 AM59 °FSunny.8 mph55%30.01 "HgN/A
10:58 AM57 °FPassing clouds.10 mph59%30.02 "HgN/A
9:58 AM55 °FSunny.9 mph63%30.01 "HgN/A
8:58 AM52 °FSunny.7 mph72%30.01 "HgN/A
7:58 AM50 °FOvercast.6 mph71%30.00 "HgN/A
6:58 AM46 °FPassing clouds.2 mph82%29.99 "HgN/A
5:58 AM46 °FOvercast.No wind87%29.97 "HgN/A
4:58 AM46 °FPassing clouds.No wind87%29.97 "HgN/A
3:58 AM46 °FPassing clouds.No wind87%29.97 "HgN/A
2:58 AM50 °FPassing clouds.1 mph76%29.97 "HgN/A
1:58 AM50 °FPassing clouds.3 mph82%29.98 "HgN/A
12:58 AM52 °FPassing clouds.No wind77%29.99 "HgN/A
11:58 PM
Fri, Sep 4
52 °FPassing clouds.1 mph82%30.00 "HgN/A
10:58 PM52 °FOvercast.2 mph82%30.00 "HgN/A
9:58 PM54 °FOvercast.3 mph77%29.99 "HgN/A
8:58 PM55 °FClear.No wind77%29.99 "HgN/A
7:58 PM59 °FSunny.2 mph68%29.98 "HgN/A
6:58 PM64 °FScattered clouds.3 mph46%29.96 "HgN/A
Weather by CustomWeather, © 2015

See weather overviewHow to use our weather pages